Location: Bauerbach
(50.4985°N, 10.3912°E)
Time: 17:56:22
(UTC+00:00)

Cosmos 2278 Rocket - Pass Details

Date: 13 January 2026
Orbit: 839 x 846 km, 71.0° (Epoch: 16 February)

Event Time Altitude Azimuth Distance (km) Brightness Sun altitude
Rises 05:25:43 0° 197° (SSW) 3,380 5.3 -16.6°
Reaches altitude 10° 05:28:09 10° 195° (SSW) 2,450 4.6 -16.2°
Maximum altitude 05:33:43 66° 114° (ESE) 919 2.6 -15.4°
Drops below altitude 10° 05:39:19 10° 34° (NE) 2,470 4.8 -14.5°
Sets 05:41:48 0° 32° (NNE) 3,410 5.6 -14.1°
